Time,TemperatureF,DewpointF,PressureIn,WindDirection,WindDirectionDegrees,WindSpeedMPH,WindSpeedGustMPH,Humidity,HourlyPrecipIn,Conditions,Clouds,dailyrainin,SoftwareType,DateUTC
2013-07-17 00:01:00,74.2,73.0,30.14,NE,45,0.0,-999.0,97,-99.99,,,0.00,weatherlink.com 1.10,2013-07-17 04:01:00,
2013-07-17 00:16:00,73.9,73.0,30.14,NE,45,0.0,-999.0,97,-99.99,,,0.00,weatherlink.com 1.10,2013-07-17 04:16:00,
2013-07-17 00:31:00,73.5,73.0,30.14,NE,45,0.0,-999.0,98,-99.99,,,0.00,weatherlink.com 1.10,2013-07-17 04:31:00,
2013-07-17 00:46:00,73.2,73.0,30.14,NE,45,0.0,-999.0,99,-99.99,,,0.00,weatherlink.com 1.10,2013-07-17 04:46:00,
2013-07-17 01:01:00,72.8,73.0,30.14,NE,45,0.0,-999.0,99,-99.99,,,0.00,weatherlink.com 1.10,2013-07-17 05:01:00,
2013-07-17 01:16:00,72.7,73.0,30.13,NE,45,0.0,-999.0,100,-99.99,,,0.00,weatherlink.com 1.10,2013-07-17 05:16:00,
2013-07-17 01:31:00,72.5,73.0,30.13,NE,45,0.0,-999.0,100,-99.99,,,0.00,weatherlink.com 1.10,2013-07-17 05:31:00,
2013-07-17 01:47:00,72.3,72.0,30.13,NE,45,0.0,-999.0,100,-99.99,,,0.00,weatherlink.com 1.10,2013-07-17 05:47:00,
2013-07-17 02:01:00,72.1,72.0,30.13,NE,45,0.0,-999.0,100,-99.99,,,0.00,weatherlink.com 1.10,2013-07-17 06:01:00,
2013-07-17 02:17:00,71.8,72.0,30.13,NE,45,0.0,-999.0,100,-99.99,,,0.00,weatherlink.com 1.10,2013-07-17 06:17:00,
2013-07-17 02:32:00,71.6,72.0,30.13,NE,45,0.0,-999.0,100,-99.99,,,0.00,weatherlink.com 1.10,2013-07-17 06:32:00,
2013-07-17 02:47:00,71.5,72.0,30.13,NE,45,0.0,-999.0,100,-99.99,,,0.00,weatherlink.com 1.10,2013-07-17 06:47:00,
2013-07-17 03:02:00,71.3,71.0,30.12,NE,45,0.0,-999.0,100,-99.99,,,0.00,weatherlink.com 1.10,2013-07-17 07:02:00,
2013-07-17 03:16:00,71.1,71.0,30.12,NE,45,0.0,-999.0,100,-99.99,,,0.00,weatherlink.com 1.10,2013-07-17 07:16:00,
2013-07-17 03:32:00,70.8,71.0,30.12,NE,45,0.0,-999.0,100,-99.99,,,0.00,weatherlink.com 1.10,2013-07-17 07:32:00,
2013-07-17 03:47:00,70.6,71.0,30.12,NE,45,0.0,-999.0,100,-99.99,,,0.00,weatherlink.com 1.10,2013-07-17 07:47:00,
2013-07-17 04:01:00,70.4,70.0,30.13,NE,45,0.0,-999.0,100,-99.99,,,0.00,weatherlink.com 1.10,2013-07-17 08:01:00,
2013-07-17 04:16:00,70.3,70.0,30.13,NE,45,0.0,-999.0,100,-99.99,,,0.00,weatherlink.com 1.10,2013-07-17 08:16:00,
2013-07-17 04:31:00,69.9,70.0,30.14,NE,45,0.0,-999.0,100,-99.99,,,0.00,weatherlink.com 1.10,2013-07-17 08:31:00,
2013-07-17 04:46:00,69.8,70.0,30.14,NE,45,0.0,-999.0,100,-99.99,,,0.00,weatherlink.com 1.10,2013-07-17 08:46:00,
2013-07-17 05:01:00,69.6,70.0,30.14,NE,45,0.0,-999.0,100,-99.99,,,0.00,weatherlink.com 1.10,2013-07-17 09:01:00,
2013-07-17 05:16:00,69.4,69.0,30.14,NE,45,0.0,-999.0,100,-99.99,,,0.00,weatherlink.com 1.10,2013-07-17 09:16:00,
2013-07-17 05:31:00,69.4,69.0,30.15,NE,45,0.0,-999.0,100,-99.99,,,0.00,weatherlink.com 1.10,2013-07-17 09:31:00,
2013-07-17 05:46:00,69.3,69.0,30.15,NE,45,0.0,-999.0,100,-99.99,,,0.00,weatherlink.com 1.10,2013-07-17 09:46:00,
2013-07-17 06:01:00,69.1,69.0,30.16,NE,45,0.0,-999.0,100,-99.99,,,0.00,weatherlink.com 1.10,2013-07-17 10:01:00,
2013-07-17 06:16:00,69.1,69.0,30.16,NE,45,0.0,-999.0,100,-99.99,,,0.00,weatherlink.com 1.10,2013-07-17 10:16:00,
2013-07-17 06:31:00,69.1,69.0,30.16,NE,45,0.0,-999.0,100,-99.99,,,0.00,weatherlink.com 1.10,2013-07-17 10:31:00,
2013-07-17 06:46:00,69.3,69.0,30.16,NE,45,0.0,-999.0,100,-99.99,,,0.00,weatherlink.com 1.10,2013-07-17 10:46:00,
2013-07-17 07:01:00,69.8,70.0,30.16,NE,45,0.0,-999.0,100,-99.99,,,0.00,weatherlink.com 1.10,2013-07-17 11:01:00,
2013-07-17 07:16:00,70.3,70.0,30.16,NE,45,0.0,-999.0,100,-99.99,,,0.00,weatherlink.com 1.10,2013-07-17 11:16:00,
2013-07-17 07:31:00,71.1,71.0,30.16,NE,45,0.0,-999.0,100,-99.99,,,0.00,weatherlink.com 1.10,2013-07-17 11:31:00,
2013-07-17 07:46:00,72.3,72.0,30.16,NE,45,0.0,-999.0,100,-99.99,,,0.00,weatherlink.com 1.10,2013-07-17 11:46:00,
2013-07-17 08:01:00,73.9,74.0,30.16,NE,45,0.0,-999.0,100,-99.99,,,0.00,weatherlink.com 1.10,2013-07-17 12:01:00,
2013-07-17 08:16:00,75.6,76.0,30.16,NE,45,0.0,-999.0,100,-99.99,,,0.00,weatherlink.com 1.10,2013-07-17 12:16:00,
2013-07-17 08:31:00,77.7,73.0,30.16,NE,45,0.0,-999.0,86,-99.99,,,0.00,weatherlink.com 1.10,2013-07-17 12:31:00,
2013-07-17 08:46:00,79.6,71.0,30.16,NE,45,1.0,-999.0,74,-99.99,,,0.00,weatherlink.com 1.10,2013-07-17 12:46:00,
2013-07-17 09:01:00,81.2,70.0,30.16,NE,45,0.0,-999.0,69,-99.99,,,0.00,weatherlink.com 1.10,2013-07-17 13:01:00,
2013-07-17 09:16:00,82.8,69.0,30.15,NE,45,0.0,-999.0,64,-99.99,,,0.00,weatherlink.com 1.10,2013-07-17 13:16:00,
2013-07-17 11:15:00,91.6,69.0,30.13,SE,133,0.0,-999.0,47,-99.99,,,0.00,weatherlink.com 1.10,2013-07-17 15:15:00,
2013-07-17 11:32:00,92.5,68.0,30.12,East,97,0.0,-999.0,45,-99.99,,,0.00,weatherlink.com 1.10,2013-07-17 15:32:00,
2013-07-17 11:47:00,93.4,69.0,30.12,SE,134,0.0,-999.0,45,-99.99,,,0.00,weatherlink.com 1.10,2013-07-17 15:47:00,
2013-07-17 12:02:00,93.8,68.0,30.12,NW,304,0.0,-999.0,43,-99.99,,,0.00,weatherlink.com 1.10,2013-07-17 16:02:00,
2013-07-17 12:17:00,93.6,64.0,30.11,NE,48,1.0,-999.0,38,-99.99,,,0.00,weatherlink.com 1.10,2013-07-17 16:17:00,
2013-07-17 12:32:00,95.1,65.0,30.11,ENE,62,0.0,-999.0,37,-99.99,,,0.00,weatherlink.com 1.10,2013-07-17 16:32:00,
2013-07-17 12:47:00,96.1,67.0,30.10,East,85,0.0,-999.0,38,-99.99,,,0.00,weatherlink.com 1.10,2013-07-17 16:47:00,
2013-07-17 13:02:00,96.1,64.0,30.10,NE,37,0.0,-999.0,34,-99.99,,,0.00,weatherlink.com 1.10,2013-07-17 17:02:00,
2013-07-17 13:16:00,97.1,68.0,30.09,NE,42,0.0,-999.0,38,-99.99,,,0.00,weatherlink.com 1.10,2013-07-17 17:16:00,
2013-07-17 13:31:00,97.1,66.0,30.09,ESE,121,1.0,-999.0,36,-99.99,,,0.00,weatherlink.com 1.10,2013-07-17 17:31:00,
2013-07-17 13:47:00,96.3,66.0,30.08,NE,37,0.0,-999.0,37,-99.99,,,0.00,weatherlink.com 1.10,2013-07-17 17:47:00,
2013-07-17 14:01:00,96.6,66.0,30.08,SSW,195,0.0,-999.0,37,-99.99,,,0.00,weatherlink.com 1.10,2013-07-17 18:01:00,
2013-07-17 14:17:00,96.8,66.0,30.07,South,178,0.0,-999.0,37,-99.99,,,0.00,weatherlink.com 1.10,2013-07-17 18:17:00,
2013-07-17 14:32:00,95.9,70.0,30.07,East,79,0.0,-999.0,43,-99.99,,,0.00,weatherlink.com 1.10,2013-07-17 18:32:00,
2013-07-17 14:47:00,95.1,68.0,30.06,East,80,0.0,-999.0,41,-99.99,,,0.00,weatherlink.com 1.10,2013-07-17 18:47:00,
2013-07-17 15:02:00,93.4,68.0,30.05,East,80,0.0,-999.0,44,-99.99,,,0.00,weatherlink.com 1.10,2013-07-17 19:02:00,
2013-07-17 15:17:00,94.5,67.0,30.05,East,88,0.0,-999.0,41,-99.99,,,0.00,weatherlink.com 1.10,2013-07-17 19:17:00,
2013-07-17 15:32:00,95.1,69.0,30.04,East,86,0.0,-999.0,42,-99.99,,,0.00,weatherlink.com 1.10,2013-07-17 19:32:00,
2013-07-17 15:47:00,95.1,67.0,30.03,East,86,0.0,-999.0,40,-99.99,,,0.00,weatherlink.com 1.10,2013-07-17 19:47:00,
2013-07-17 16:02:00,95.9,69.0,30.02,East,86,0.0,-999.0,42,-99.99,,,0.00,weatherlink.com 1.10,2013-07-17 20:02:00,
2013-07-17 16:17:00,96.1,69.0,30.02,East,85,0.0,-999.0,41,-99.99,,,0.00,weatherlink.com 1.10,2013-07-17 20:17:00,
2013-07-17 16:32:00,96.3,69.0,30.01,East,86,0.0,-999.0,41,-99.99,,,0.00,weatherlink.com 1.10,2013-07-17 20:32:00,
2013-07-17 16:47:00,95.6,68.0,30.01,East,86,0.0,-999.0,41,-99.99,,,0.00,weatherlink.com 1.10,2013-07-17 20:47:00,
2013-07-17 17:17:00,95.4,70.0,30.00,East,86,0.0,-999.0,44,-99.99,,,0.00,weatherlink.com 1.10,2013-07-17 21:17:00,
2013-07-17 17:32:00,94.5,69.0,30.00,SSE,167,0.0,-999.0,43,-99.99,,,0.00,weatherlink.com 1.10,2013-07-17 21:32:00,
2013-07-17 17:47:00,93.2,69.0,29.99,SSE,164,0.0,-999.0,45,-99.99,,,0.00,weatherlink.com 1.10,2013-07-17 21:47:00,
2013-07-17 18:02:00,92.3,69.0,29.98,WNW,294,0.0,-999.0,47,-99.99,,,0.00,weatherlink.com 1.10,2013-07-17 22:02:00,
2013-07-17 18:32:00,90.1,70.0,29.97,WNW,294,0.0,-999.0,51,-99.99,,,0.00,weatherlink.com 1.10,2013-07-17 22:32:00,
2013-07-17 18:47:00,89.3,70.0,29.98,ENE,78,0.0,-999.0,54,-99.99,,,0.00,weatherlink.com 1.10,2013-07-17 22:47:00,
2013-07-17 19:02:00,88.4,71.0,29.97,ENE,78,0.0,-999.0,56,-99.99,,,0.00,weatherlink.com 1.10,2013-07-17 23:02:00,
2013-07-17 19:17:00,87.8,71.0,29.98,ENE,78,0.0,-999.0,58,-99.99,,,0.00,weatherlink.com 1.10,2013-07-17 23:17:00,
2013-07-17 19:32:00,87.0,71.0,29.98,ENE,78,0.0,-999.0,59,-99.99,,,0.00,weatherlink.com 1.10,2013-07-17 23:32:00,
2013-07-17 19:47:00,86.1,71.0,29.98,ENE,78,0.0,-999.0,60,-99.99,,,0.00,weatherlink.com 1.10,2013-07-17 23:47:00,
2013-07-17 20:02:00,85.3,70.0,29.98,ENE,78,0.0,-999.0,61,-99.99,,,0.00,weatherlink.com 1.10,2013-07-18 00:02:00,
2013-07-17 20:17:00,84.7,70.0,29.98,ENE,78,0.0,-999.0,62,-99.99,,,0.00,weatherlink.com 1.10,2013-07-18 00:17:00,
2013-07-17 20:32:00,84.1,71.0,29.98,ENE,78,0.0,-999.0,65,-99.99,,,0.00,weatherlink.com 1.10,2013-07-18 00:32:00,
2013-07-17 20:46:00,83.4,71.0,29.99,ENE,78,0.0,-999.0,67,-99.99,,,0.00,weatherlink.com 1.10,2013-07-18 00:46:00,
2013-07-17 21:02:00,82.8,72.0,29.98,ENE,78,0.0,-999.0,69,-99.99,,,0.00,weatherlink.com 1.10,2013-07-18 01:02:00,
2013-07-17 21:16:00,82.0,71.0,29.98,ENE,78,0.0,-999.0,69,-99.99,,,0.00,weatherlink.com 1.10,2013-07-18 01:16:00,
2013-07-17 21:32:00,81.4,71.0,29.98,ENE,78,0.0,-999.0,70,-99.99,,,0.00,weatherlink.com 1.10,2013-07-18 01:32:00,
2013-07-17 21:47:00,81.1,71.0,29.99,ENE,78,0.0,-999.0,72,-99.99,,,0.00,weatherlink.com 1.10,2013-07-18 01:47:00,
2013-07-17 22:02:00,80.3,71.0,30.00,ENE,78,0.0,-999.0,74,-99.99,,,0.00,weatherlink.com 1.10,2013-07-18 02:02:00,
2013-07-17 22:17:00,79.9,71.0,30.00,ENE,78,0.0,-999.0,75,-99.99,,,0.00,weatherlink.com 1.10,2013-07-18 02:17:00,
2013-07-17 22:32:00,79.6,71.0,29.99,ENE,78,0.0,-999.0,76,-99.99,,,0.00,weatherlink.com 1.10,2013-07-18 02:32:00,
2013-07-17 22:47:00,79.2,71.0,29.98,ENE,78,0.0,-999.0,77,-99.99,,,0.00,weatherlink.com 1.10,2013-07-18 02:47:00,
2013-07-17 23:02:00,78.8,71.0,29.97,ENE,78,0.0,-999.0,78,-99.99,,,0.00,weatherlink.com 1.10,2013-07-18 03:02:00,
2013-07-17 23:17:00,78.3,71.0,29.96,ENE,78,0.0,-999.0,78,-99.99,,,0.00,weatherlink.com 1.10,2013-07-18 03:17:00,
2013-07-17 23:32:00,77.9,71.0,29.95,ENE,78,0.0,-999.0,79,-99.99,,,0.00,weatherlink.com 1.10,2013-07-18 03:32:00,
2013-07-17 23:47:00,77.6,71.0,29.95,ENE,78,0.0,-999.0,81,-99.99,,,0.00,weatherlink.com 1.10,2013-07-18 03:47:00,